Mount Sterling, KY

5:10 AM EDT on April 30, 2017 (GMT -0400)
Mount Sterling-Montgomery County

Weather History for KIOB - October, 2014

Change the Weather History Date:

Saturday, October 4, 2014

  Actual Average Record
Temperature  
Mean Temperature 46 °F -  
Max Temperature 53 °F 72 °F 82 °F (2013)
Min Temperature 37 °F 47 °F 37 °F (2014)
Degree Days  
Heating Degree Days 19    
Moisture  
Dew Point 36 °F    
Average Humidity 68    
Maximum Humidity 93    
Minimum Humidity 41    
Precipitation  
Precipitation 0.00 in - - ()
Sea Level Pressure  
Sea Level Pressure 29.90 in    
Wind  
Wind Speed 11 mph (WNW)    
Max Wind Speed 20 mph    
Max Gust Speed 31 mph    
Visibility 10 miles    
Events      
Averages and records for this station are not official NWS values.
T = Trace of Precipitation, MM = Missing Value Source: NWS Daily Summary

Daily Weather History Graph

Daily Weather History Graph

Search for Another Location

Airport or City:

Trip Planner

Search our weather history database for the weather conditions in past years. The results will help you decide how hot, cold, wet, or windy it might be!

Date:

Astronomy

Oct. 04, 2014 Rise Set
Actual Time 7:34 AM EDT 7:14 PM EDT
Civil Twilight 7:07 AM EDT 7:40 PM EDT
Nautical Twilight 6:37 AM EDT 8:11 PM EDT
Astronomical Twilight 6:06 AM EDT 8:41 PM EDT
Moon 4:47 PM EDT (10/4) 3:04 AM EDT (10/4)
Length of Visible Light 12h 32m
Length of Day
11h 40m
Waxing Gibbous, 81% of the Moon is Illuminated
Oct 4
Waxing Gibbous
Oct 8
Full
Oct 15
Last Quarter
Oct 23
New
Oct 30
First Quarter

Hourly Weather History & Observations

Time (EDT) Temp. Windchill Dew Point Humidity Pressure Visibility Wind Dir Wind Speed Gust Speed Precip Events Conditions
12:15 AM 51.8 °F - 48.2 °F 88% 29.89 in 10.0 mi NW 15.0 mph 24.2 mph N/A   Overcast
12:35 AM 50.0 °F - 46.4 °F 87% 29.89 in 10.0 mi NW 13.8 mph 27.6 mph N/A   Overcast
12:55 AM 50.0 °F - 44.6 °F 82% 29.90 in 10.0 mi WNW 10.4 mph 23.0 mph N/A   Overcast
1:15 AM 48.2 °F - 44.6 °F 87% 29.90 in 10.0 mi NW 11.5 mph 21.9 mph N/A   Overcast
1:35 AM 46.4 °F 40.7 °F 42.8 °F 87% 29.90 in 10.0 mi WNW 12.7 mph 18.4 mph N/A   Mostly Cloudy
1:55 AM 46.4 °F 40.1 °F 42.8 °F 87% 29.91 in 10.0 mi NW 15.0 mph 21.9 mph N/A   Mostly Cloudy
2:15 AM 44.6 °F 39.2 °F 42.8 °F 93% 29.92 in 10.0 mi WNW 10.4 mph 18.4 mph N/A   Mostly Cloudy
2:35 AM 44.6 °F 40.2 °F 41.0 °F 87% 29.92 in 10.0 mi WNW 8.1 mph 18.4 mph N/A   Overcast
2:55 AM 44.6 °F 40.2 °F 41.0 °F 87% 29.92 in 10.0 mi WNW 8.1 mph - N/A   Mostly Cloudy
3:15 AM 42.8 °F 39.3 °F 41.0 °F 93% 29.92 in 10.0 mi West 5.8 mph - N/A   Mostly Cloudy
3:35 AM 42.8 °F 39.3 °F 41.0 °F 93% 29.91 in 10.0 mi WNW 5.8 mph - N/A   Mostly Cloudy
3:55 AM 42.8 °F 38.6 °F 41.0 °F 93% 29.91 in 10.0 mi West 6.9 mph - N/A   Overcast
4:15 AM 44.6 °F 40.2 °F 41.0 °F 87% 29.91 in 10.0 mi West 8.1 mph - N/A   Overcast
4:35 AM 44.6 °F 39.2 °F 41.0 °F 87% 29.91 in 10.0 mi West 10.4 mph 16.1 mph N/A   Overcast
4:55 AM 44.6 °F 38.1 °F 41.0 °F 87% 29.92 in 10.0 mi West 13.8 mph 23.0 mph N/A   Overcast
5:15 AM 44.6 °F 38.8 °F 39.2 °F 81% 29.92 in 10.0 mi West 11.5 mph 18.4 mph N/A   Overcast
5:35 AM 44.6 °F 38.4 °F 39.2 °F 81% 29.92 in 10.0 mi West 12.7 mph 18.4 mph N/A   Overcast
5:55 AM 42.8 °F 37.5 °F 39.2 °F 87% 29.91 in 10.0 mi West 9.2 mph 19.6 mph N/A   Scattered Clouds
6:15 AM 42.8 °F 37.5 °F 39.2 °F 87% 29.91 in 10.0 mi West 9.2 mph - N/A   Scattered Clouds
6:35 AM 42.8 °F 37.5 °F 39.2 °F 87% 29.91 in 10.0 mi West 9.2 mph - N/A   Mostly Cloudy
6:55 AM 41.0 °F 34.7 °F 39.2 °F 93% 29.91 in 10.0 mi West 10.4 mph - N/A   Scattered Clouds
7:15 AM 41.0 °F 35.2 °F 39.2 °F 93% 29.92 in 10.0 mi West 9.2 mph - N/A   Clear
7:35 AM 41.0 °F 35.8 °F 37.4 °F 87% 29.92 in 10.0 mi West 8.1 mph - N/A   Scattered Clouds
7:55 AM 41.0 °F 35.2 °F 37.4 °F 87% 29.91 in 10.0 mi West 9.2 mph - N/A   Clear
8:15 AM 41.0 °F 35.8 °F 37.4 °F 87% 29.92 in 10.0 mi West 8.1 mph - N/A   Clear
8:35 AM 41.0 °F 33.9 °F 37.4 °F 87% 29.92 in 10.0 mi West 12.7 mph 17.3 mph N/A   Clear
8:55 AM 42.8 °F 36.6 °F 37.4 °F 81% 29.93 in 10.0 mi West 11.5 mph 17.3 mph N/A   Clear
9:15 AM 42.8 °F 36.2 °F 37.4 °F 81% 29.92 in 10.0 mi West 12.7 mph 19.6 mph N/A   Clear
9:35 AM 44.6 °F 37.8 °F 35.6 °F 71% 29.92 in 10.0 mi West 15.0 mph 23.0 mph N/A   Clear
9:55 AM 44.6 °F 37.4 °F 35.6 °F 71% 29.92 in 10.0 mi West 16.1 mph 20.7 mph N/A   Scattered Clouds
10:15 AM 46.4 °F 40.4 °F 33.8 °F 62% 29.92 in 10.0 mi West 13.8 mph 21.9 mph N/A   Scattered Clouds
10:35 AM 46.4 °F 39.5 °F 32.0 °F 57% 29.93 in 10.0 mi WNW 17.3 mph 25.3 mph N/A   Scattered Clouds
10:55 AM 44.6 °F 38.8 °F 32.0 °F 61% 29.92 in 10.0 mi West 11.5 mph 24.2 mph N/A   Mostly Cloudy
11:15 AM 48.2 °F - 32.0 °F 54% 29.91 in 10.0 mi WNW 16.1 mph 24.2 mph N/A   Overcast
11:35 AM 48.2 °F - 30.2 °F 50% 29.91 in 10.0 mi West 12.7 mph 28.8 mph N/A   Overcast
11:55 AM 46.4 °F 40.4 °F 30.2 °F 53% 29.90 in 10.0 mi WNW 13.8 mph 27.6 mph N/A   Mostly Cloudy
12:15 PM 48.2 °F - 30.2 °F 50% 29.90 in 10.0 mi WNW 13.8 mph 31.1 mph N/A   Mostly Cloudy
12:35 PM 50.0 °F - 30.2 °F 47% 29.89 in 10.0 mi WNW 10.4 mph 23.0 mph N/A   Mostly Cloudy
12:55 PM 51.8 °F - 32.0 °F 47% 29.89 in 10.0 mi WNW 15.0 mph 23.0 mph N/A   Scattered Clouds
1:15 PM 51.8 °F - 30.2 °F 44% 29.88 in 10.0 mi NW 12.7 mph 23.0 mph N/A   Mostly Cloudy
1:35 PM 51.8 °F - 30.2 °F 44% 29.88 in 10.0 mi West 19.6 mph 26.5 mph N/A   Scattered Clouds
1:55 PM 51.8 °F - 30.2 °F 44% 29.87 in 10.0 mi West 16.1 mph 26.5 mph N/A   Scattered Clouds
2:15 PM 51.8 °F - 30.2 °F 44% 29.86 in 10.0 mi WNW 13.8 mph 26.5 mph N/A   Mostly Cloudy
2:55 PM 53.6 °F - 30.2 °F 41% 29.86 in 10.0 mi WNW 15.0 mph 24.2 mph N/A   Mostly Cloudy
3:15 PM 53.6 °F - 30.2 °F 41% 29.86 in 10.0 mi WNW 15.0 mph 19.6 mph N/A   Mostly Cloudy
3:35 PM 53.6 °F - 32.0 °F 44% 29.86 in 10.0 mi West 10.4 mph 19.6 mph N/A   Mostly Cloudy
3:55 PM 51.8 °F - 30.2 °F 44% 29.86 in 10.0 mi WNW 13.8 mph 17.3 mph N/A   Overcast
4:15 PM 51.8 °F - 32.0 °F 47% 29.86 in 10.0 mi WNW 9.2 mph 19.6 mph N/A   Overcast
4:35 PM 51.8 °F - 30.2 °F 44% 29.86 in 10.0 mi WNW 9.2 mph 16.1 mph N/A   Overcast
4:55 PM 51.8 °F - 32.0 °F 47% 29.86 in 10.0 mi West 10.4 mph - N/A   Overcast
5:15 PM 51.8 °F - 32.0 °F 47% 29.86 in 10.0 mi WNW 11.5 mph 19.6 mph N/A   Overcast
5:35 PM 51.8 °F - 32.0 °F 47% 29.87 in 10.0 mi West 11.5 mph 17.3 mph N/A   Overcast
5:55 PM 51.8 °F - 32.0 °F 47% 29.87 in 10.0 mi WNW 8.1 mph 20.7 mph N/A   Overcast
6:15 PM 51.8 °F - 32.0 °F 47% 29.88 in 10.0 mi WNW 6.9 mph - N/A   Overcast
6:35 PM 51.8 °F - 32.0 °F 47% 29.88 in 10.0 mi WNW 9.2 mph - N/A   Overcast
6:55 PM 50.0 °F - 32.0 °F 50% 29.89 in 10.0 mi WNW 6.9 mph - N/A   Overcast
7:15 PM 50.0 °F - 32.0 °F 50% 29.90 in 10.0 mi WNW 6.9 mph - N/A   Scattered Clouds
7:35 PM 48.2 °F - 32.0 °F 54% 29.91 in 10.0 mi WNW 4.6 mph - N/A   Mostly Cloudy
7:55 PM 48.2 °F - 33.8 °F 58% 29.91 in 10.0 mi WNW 6.9 mph - N/A   Overcast
8:15 PM 46.4 °F 42.9 °F 33.8 °F 62% 29.92 in 10.0 mi WNW 6.9 mph - N/A   Overcast
8:35 PM 46.4 °F 42.9 °F 33.8 °F 62% 29.92 in 10.0 mi WNW 6.9 mph - N/A   Mostly Cloudy
8:55 PM 46.4 °F 42.9 °F 33.8 °F 62% 29.93 in 10.0 mi WNW 6.9 mph - N/A   Scattered Clouds
9:15 PM 44.6 °F 40.7 °F 33.8 °F 66% 29.92 in 10.0 mi West 6.9 mph - N/A   Scattered Clouds
9:55 PM 44.6 °F 41.4 °F 33.8 °F 66% 29.93 in 10.0 mi West 5.8 mph - N/A   Clear
10:15 PM 42.8 °F 39.3 °F 33.8 °F 70% 29.94 in 10.0 mi WNW 5.8 mph - N/A   Clear
10:35 PM 42.8 °F 41.1 °F 33.8 °F 70% 29.95 in 10.0 mi WNW 3.5 mph - N/A   Clear
10:55 PM 41.0 °F 38.0 °F 33.8 °F 76% 29.95 in 10.0 mi West 4.6 mph - N/A   Clear
11:15 PM 41.0 °F 39.0 °F 33.8 °F 76% 29.93 in 10.0 mi WNW 3.5 mph - N/A   Clear
11:35 PM 39.2 °F 37.0 °F 33.8 °F 81% 29.94 in 10.0 mi West 3.5 mph - N/A   Clear
11:55 PM 37.4 °F 34.9 °F 35.6 °F 93% 29.94 in 10.0 mi West 3.5 mph - N/A   Clear